C/2013 W2 ( PanSTARRS )

Japanese version
Home page
Updated on May 22, 2016

---------------------------------------------------------------------

* Profile

Discovery Date November 27, 2013
Magnitude 20.9 mag
Discoverer Pan-STARRS 1 telescope (Haleakala)

* Pictures

* Orbital Elements

Epoch 2015 Jan. 18.0 TT = JDT 2457040.5
T 2015 Jan. 5.29067 TT                                  MPCW
q   4.4444414            (2000.0)            P               Q
n   0.02918356     Peri.  307.19496     -0.60245271     -0.79815455
a  10.4482568      Node   179.85032     +0.75520473     -0.57011817
e   0.5746236      Incl.    4.56656     +0.25829548     -0.19471668
P  33.77
From 156 observations 2013 Nov. 27-2016 May 5, mean residual 0".5.

* Magnitudes Graph

        m1 = 7.5 + 5 log d + 12.0 log r

---------------------------------------------------------------------

The orbital elements are published on M.P.E.C. 2016-K18.
The magnitudes graphs are made with Comet for Windows.

---------------------------------------------------------------------

Copyright(C) Seiichi Yoshida (comet@aerith.net). All rights reserved.